MSC Magnifica — 3FLO4 — position and weather

sailwx.info

Track history (hours):
 
Tides and Currents Weather Stations Pressure Air Temp Water Temp Dewpoint Dewpoint Depression Visibility Wind Speed Wind Dir Waves Ship Positions

MSC Magnifica

Last reported at 2019-Sep-19 17:28 UTC. Time now 2019-Sep-22 00:24 UTC.
Position N 36°45' E 023°19'.

Length 294 m; draft 7.8 m.

Type: Passenger vessel. MMSI: 352594000.

Date/timePositionNaut miles runAvg speedWind from/ knotsBaromVisibWave heightAir tempDewpointWater temp
2019-Sep-19 17:28N 36°45' E 023°19'1920.7
2019-Sep-19 16:32N 37°03' E 023°28'119.9
2019-Sep-19 16:30N 37°04' E 023°28'1720.2
2019-Sep-19 15:41N 37°19' E 023°36'420.2
2019-Sep-19 15:30N 37°22' E 023°37'1121.0
2019-Sep-19 15:00N 37°33' E 023°37'1020.6
2019-Sep-19 14:30N 37°43' E 023°36'1020.4
2019-Sep-19 14:00N 37°53' E 023°37'3 5.8
2019-Sep-19 13:30N 37°56' E 023°37'0 0.0
2019-Sep-19 13:00N 37°56' E 023°37'0 0.0
2019-Sep-19 12:24N 37°56' E 023°37'0 0.0
2019-Sep-19 11:54N 37°56' E 023°37'0 0.0
2019-Sep-19 11:30N 37°56' E 023°37'0 0.0
2019-Sep-19 11:00N 37°56' E 023°37'0 0.0
2019-Sep-19 10:30N 37°56' E 023°37'0 0.0
2019-Sep-19 10:00N 37°56' E 023°37'0 0.0
2019-Sep-19 09:30N 37°56' E 023°37'0 0.0
2019-Sep-19 08:54N 37°56' E 023°37'0 0.0
2019-Sep-19 08:30N 37°56' E 023°37'0 0.0
2019-Sep-19 07:57N 37°56' E 023°37'0 0.0
2019-Sep-19 07:30N 37°56' E 023°37'0 0.0
2019-Sep-19 06:56N 37°56' E 023°37'0 0.0
2019-Sep-19 06:29N 37°56' E 023°37'0 0.0
2019-Sep-19 05:59N 37°56' E 023°37'0 0.0
2019-Sep-19 05:29N 37°56' E 023°37'0 0.0
2019-Sep-19 04:56N 37°56' E 023°37'0 0.0
2019-Sep-19 04:29N 37°56' E 023°37'0 0.0
2019-Sep-19 03:59N 37°56' E 023°37'0 0.0
2019-Sep-19 03:30N 37°56' E 023°37'1 2.3
2019-Sep-19 03:00N 37°56' E 023°36'2 4.6
2019-Sep-19 02:30N 37°53' E 023°37'611.5
2019-Sep-19 02:01N 37°48' E 023°41'611.3
2019-Sep-19 01:30N 37°43' E 023°43'510.4
2019-Sep-19 01:00N 37°38' E 023°46'510.4
2019-Sep-19 00:30N 37°34' E 023°49'510.8
2019-Sep-19 00:00N 37°28' E 023°51'610.8
2019-Sep-18 23:26N 37°23' E 023°54'511.2
2019-Sep-18 23:00N 37°18' E 023°56'611.0
2019-Sep-18 22:30N 37°13' E 023°59'611.3
2019-Sep-18 22:00N 37°08' E 024°02'711.3
2019-Sep-18 21:22N 37°02' E 024°07'612.3
2019-Sep-18 20:55N 37°00' E 024°14'612.2
2019-Sep-18 20:26N 36°57' E 024°20'512.5
2019-Sep-18 20:00N 36°55' E 024°27'912.6
2019-Sep-18 19:16N 36°52' E 024°37'36 2.0
2019-Sep-18 00:58N 36°22' E 024°14'1217.0
2019-Sep-18 00:16N 36°22' E 023°59'517.3
2019-Sep-18 00:00N 36°22' E 023°53'817.0
2019-Sep-17 23:30N 36°22' E 023°43'61413.2
2019-Sep-16 00:55N 43°42' E 014°25'1021.7
2019-Sep-16 00:28N 43°50' E 014°17'1021.5
2019-Sep-15 23:59N 43°59' E 014°09'1021.5
2019-Sep-15 23:30N 44°07' E 014°01'1121.7
2019-Sep-15 23:00N 44°16' E 013°53'1121.8
2019-Sep-15 22:29N 44°26' E 013°44'1021.6
2019-Sep-15 22:00N 44°34' E 013°36'1121.5
2019-Sep-15 21:30N 44°43' E 013°28'1121.3
2019-Sep-15 21:00N 44°52' E 013°19'1021.0
2019-Sep-15 20:30N 44°60' E 013°09'1020.9
2019-Sep-15 20:00N 45°07' E 012°58'1020.8
2019-Sep-15 19:30N 45°13' E 012°47'1020.7
2019-Sep-15 19:00N 45°20' E 012°36'917.4
2019-Sep-15 18:30N 45°25' E 012°26'3 5.8
2019-Sep-15 18:00N 45°26' E 012°21'2 4.2
2019-Sep-15 17:30N 45°26' E 012°18'0 0.3
2019-Sep-15 17:00N 45°26' E 012°19'0 0.0
2019-Sep-15 16:27N 45°26' E 012°19'0 0.0
2019-Sep-15 16:00N 45°26' E 012°19'0 0.0
2019-Sep-15 15:30N 45°26' E 012°19'0 0.0
2019-Sep-15 15:00N 45°26' E 012°19'0 0.0
2019-Sep-15 14:30N 45°26' E 012°19'0 0.0
2019-Sep-15 13:59N 45°26' E 012°19'0 0.0
2019-Sep-15 13:29N 45°26' E 012°19'0 0.0
2019-Sep-15 12:59N 45°26' E 012°19'0 0.0
2019-Sep-15 12:29N 45°26' E 012°19'0 0.0
2019-Sep-15 11:59N 45°26' E 012°19'0 0.0
2019-Sep-15 11:29N 45°26' E 012°19'0 0.0
2019-Sep-15 10:58N 45°26' E 012°19'0 0.0
2019-Sep-15 10:28N 45°26' E 012°19'0 0.0
2019-Sep-15 09:55N 45°26' E 012°19'0 0.0
2019-Sep-15 09:28N 45°26' E 012°19'0 0.0
2019-Sep-15 08:58N 45°26' E 012°19'0 0.0
2019-Sep-15 08:25N 45°26' E 012°19'0 0.0
2019-Sep-15 07:55N 45°26' E 012°19'1 1.4
2019-Sep-15 07:30N 45°26' E 012°19'2 4.7
2019-Sep-15 07:00N 45°26' E 012°23'4 7.5
2019-Sep-15 06:30N 45°25' E 012°28'4 7.3
2019-Sep-15 06:00N 45°23' E 012°32'815.0
2019-Sep-15 05:30N 45°18' E 012°40'917.4
2019-Sep-15 05:00N 45°12' E 012°50'1019.3
2019-Sep-15 04:30N 45°07' E 013°01'1019.4
2019-Sep-15 04:00N 45°01' E 013°12'1019.4
2019-Sep-15 03:30N 44°54' E 013°22'1019.3
2019-Sep-15 03:00N 44°46' E 013°30'1019.1
2019-Sep-15 02:30N 44°38' E 013°37'1019.0
2019-Sep-15 02:00N 44°31' E 013°45'918.8
2019-Sep-15 01:30N 44°23' E 013°53'918.9
2019-Sep-15 01:00N 44°15' E 013°60'1019.2
2019-Sep-15 00:30N 44°07' E 014°07'1019.0
2019-Sep-14 23:59N 43°60' E 014°16'  
2019-Sep-12 15:33N 37°20' E 023°36'120.3
2019-Sep-12 15:30N 37°21' E 023°36'1121.0
2019-Sep-12 15:00N 37°31' E 023°40'1020.0
2019-Sep-12 14:30N 37°41' E 023°41'1020.6
2019-Sep-12 14:00N 37°50' E 023°36'612.2
2019-Sep-12 13:31N 37°56' E 023°37'0 0.0
2019-Sep-12 12:58N 37°56' E 023°37'0 0.0
2019-Sep-12 12:28N 37°56' E 023°37'0 0.0
2019-Sep-12 11:58N 37°56' E 023°37'0 0.0
2019-Sep-12 11:28N 37°56' E 023°37'0 0.0
2019-Sep-12 10:58N 37°56' E 023°37'0 0.0
2019-Sep-12 10:28N 37°56' E 023°37'0 0.0
2019-Sep-12 10:00N 37°56' E 023°37'0 0.0
2019-Sep-12 09:27N 37°56' E 023°37'0 0.0
2019-Sep-12 09:00N 37°56' E 023°37'0 0.0
2019-Sep-12 08:30N 37°56' E 023°37'0 0.0
2019-Sep-12 08:00N 37°56' E 023°37'0 0.0
2019-Sep-12 07:30N 37°56' E 023°37'0 0.0
2019-Sep-12 07:00N 37°56' E 023°37'0 0.0
2019-Sep-12 06:21N 37°56' E 023°37'0 0.0
2019-Sep-12 05:57N 37°56' E 023°37'0 0.0
2019-Sep-12 05:30N 37°56' E 023°37'0 0.0
2019-Sep-12 05:00N 37°56' E 023°37'0 0.0
2019-Sep-12 04:30N 37°56' E 023°37'0 0.0
2019-Sep-12 03:54N 37°56' E 023°37'0 0.0
2019-Sep-12 03:21N 37°56' E 023°37'0 0.4
2019-Sep-12 03:00N 37°56' E 023°38'2 4.2
2019-Sep-12 02:30N 37°54' E 023°37'5 9.8
2019-Sep-12 02:00N 37°50' E 023°39'611.2
2019-Sep-12 01:30N 37°45' E 023°42'510.6
2019-Sep-12 01:00N 37°40' E 023°45'510.6
2019-Sep-12 00:30N 37°35' E 023°48'510.6
2019-Sep-12 00:00N 37°30' E 023°50'610.8
2019-Sep-11 23:29N 37°25' E 023°53'175 4.1
2019-Sep-10 04:56N 38°09' E 020°19'  
Track history (hours):
 
Tides and Currents Weather Stations Pressure Air Temp Water Temp Dewpoint Dewpoint Depression Visibility Wind Speed Wind Dir Waves Ship Positions

MSC Magnifica

Last reported at 2019-Sep-19 17:28 UTC. Time now 2019-Sep-22 00:24 UTC.
Position N 36°45' E 023°19'.

Length 294 m; draft 7.8 m.

Type: Passenger vessel. MMSI: 352594000.

Date/timePositionNaut miles runAvg speedWind from/ knotsBaromVisibWave heightAir tempDewpointWater temp
2019-Sep-19 17:28N 36°45' E 023°19'1920.7
2019-Sep-19 16:32N 37°03' E 023°28'119.9
2019-Sep-19 16:30N 37°04' E 023°28'1720.2
2019-Sep-19 15:41N 37°19' E 023°36'420.2
2019-Sep-19 15:30N 37°22' E 023°37'1121.0
2019-Sep-19 15:00N 37°33' E 023°37'1020.6
2019-Sep-19 14:30N 37°43' E 023°36'1020.4
2019-Sep-19 14:00N 37°53' E 023°37'3 5.8
2019-Sep-19 13:30N 37°56' E 023°37'0 0.0
2019-Sep-19 13:00N 37°56' E 023°37'0 0.0
2019-Sep-19 12:24N 37°56' E 023°37'0 0.0
2019-Sep-19 11:54N 37°56' E 023°37'0 0.0
2019-Sep-19 11:30N 37°56' E 023°37'0 0.0
2019-Sep-19 11:00N 37°56' E 023°37'0 0.0
2019-Sep-19 10:30N 37°56' E 023°37'0 0.0
2019-Sep-19 10:00N 37°56' E 023°37'0 0.0
2019-Sep-19 09:30N 37°56' E 023°37'0 0.0
2019-Sep-19 08:54N 37°56' E 023°37'0 0.0
2019-Sep-19 08:30N 37°56' E 023°37'0 0.0
2019-Sep-19 07:57N 37°56' E 023°37'0 0.0
2019-Sep-19 07:30N 37°56' E 023°37'0 0.0
2019-Sep-19 06:56N 37°56' E 023°37'0 0.0
2019-Sep-19 06:29N 37°56' E 023°37'0 0.0
2019-Sep-19 05:59N 37°56' E 023°37'0 0.0
2019-Sep-19 05:29N 37°56' E 023°37'0 0.0
2019-Sep-19 04:56N 37°56' E 023°37'0 0.0
2019-Sep-19 04:29N 37°56' E 023°37'0 0.0
2019-Sep-19 03:59N 37°56' E 023°37'0 0.0
2019-Sep-19 03:30N 37°56' E 023°37'1 2.3
2019-Sep-19 03:00N 37°56' E 023°36'2 4.6
2019-Sep-19 02:30N 37°53' E 023°37'611.5
2019-Sep-19 02:01N 37°48' E 023°41'611.3
2019-Sep-19 01:30N 37°43' E 023°43'510.4
2019-Sep-19 01:00N 37°38' E 023°46'510.4
2019-Sep-19 00:30N 37°34' E 023°49'510.8
2019-Sep-19 00:00N 37°28' E 023°51'610.8
2019-Sep-18 23:26N 37°23' E 023°54'511.2
2019-Sep-18 23:00N 37°18' E 023°56'611.0
2019-Sep-18 22:30N 37°13' E 023°59'611.3
2019-Sep-18 22:00N 37°08' E 024°02'711.3
2019-Sep-18 21:22N 37°02' E 024°07'612.3
2019-Sep-18 20:55N 37°00' E 024°14'612.2
2019-Sep-18 20:26N 36°57' E 024°20'512.5
2019-Sep-18 20:00N 36°55' E 024°27'912.6
2019-Sep-18 19:16N 36°52' E 024°37'36 2.0
2019-Sep-18 00:58N 36°22' E 024°14'1217.0
2019-Sep-18 00:16N 36°22' E 023°59'517.3
2019-Sep-18 00:00N 36°22' E 023°53'817.0
2019-Sep-17 23:30N 36°22' E 023°43'61413.2
2019-Sep-16 00:55N 43°42' E 014°25'1021.7
2019-Sep-16 00:28N 43°50' E 014°17'1021.5
2019-Sep-15 23:59N 43°59' E 014°09'1021.5
2019-Sep-15 23:30N 44°07' E 014°01'1121.7
2019-Sep-15 23:00N 44°16' E 013°53'1121.8
2019-Sep-15 22:29N 44°26' E 013°44'1021.6
2019-Sep-15 22:00N 44°34' E 013°36'1121.5
2019-Sep-15 21:30N 44°43' E 013°28'1121.3
2019-Sep-15 21:00N 44°52' E 013°19'1021.0
2019-Sep-15 20:30N 44°60' E 013°09'1020.9
2019-Sep-15 20:00N 45°07' E 012°58'1020.8
2019-Sep-15 19:30N 45°13' E 012°47'1020.7
2019-Sep-15 19:00N 45°20' E 012°36'917.4
2019-Sep-15 18:30N 45°25' E 012°26'3 5.8
2019-Sep-15 18:00N 45°26' E 012°21'2 4.2
2019-Sep-15 17:30N 45°26' E 012°18'0 0.3
2019-Sep-15 17:00N 45°26' E 012°19'0 0.0
2019-Sep-15 16:27N 45°26' E 012°19'0 0.0
2019-Sep-15 16:00N 45°26' E 012°19'0 0.0
2019-Sep-15 15:30N 45°26' E 012°19'0 0.0
2019-Sep-15 15:00N 45°26' E 012°19'0 0.0
2019-Sep-15 14:30N 45°26' E 012°19'0 0.0
2019-Sep-15 13:59N 45°26' E 012°19'0 0.0
2019-Sep-15 13:29N 45°26' E 012°19'0 0.0
2019-Sep-15 12:59N 45°26' E 012°19'0 0.0
2019-Sep-15 12:29N 45°26' E 012°19'0 0.0
2019-Sep-15 11:59N 45°26' E 012°19'0 0.0
2019-Sep-15 11:29N 45°26' E 012°19'0 0.0
2019-Sep-15 10:58N 45°26' E 012°19'0 0.0
2019-Sep-15 10:28N 45°26' E 012°19'0 0.0
2019-Sep-15 09:55N 45°26' E 012°19'0 0.0
2019-Sep-15 09:28N 45°26' E 012°19'0 0.0
2019-Sep-15 08:58N 45°26' E 012°19'0 0.0
2019-Sep-15 08:25N 45°26' E 012°19'0 0.0
2019-Sep-15 07:55N 45°26' E 012°19'1 1.4
2019-Sep-15 07:30N 45°26' E 012°19'2 4.7
2019-Sep-15 07:00N 45°26' E 012°23'4 7.5
2019-Sep-15 06:30N 45°25' E 012°28'4 7.3
2019-Sep-15 06:00N 45°23' E 012°32'815.0
2019-Sep-15 05:30N 45°18' E 012°40'917.4
2019-Sep-15 05:00N 45°12' E 012°50'1019.3
2019-Sep-15 04:30N 45°07' E 013°01'1019.4
2019-Sep-15 04:00N 45°01' E 013°12'1019.4
2019-Sep-15 03:30N 44°54' E 013°22'1019.3
2019-Sep-15 03:00N 44°46' E 013°30'1019.1
2019-Sep-15 02:30N 44°38' E 013°37'1019.0
2019-Sep-15 02:00N 44°31' E 013°45'918.8
2019-Sep-15 01:30N 44°23' E 013°53'918.9
2019-Sep-15 01:00N 44°15' E 013°60'1019.2
2019-Sep-15 00:30N 44°07' E 014°07'1019.0
2019-Sep-14 23:59N 43°60' E 014°16'  
2019-Sep-12 15:33N 37°20' E 023°36'120.3
2019-Sep-12 15:30N 37°21' E 023°36'1121.0
2019-Sep-12 15:00N 37°31' E 023°40'1020.0
2019-Sep-12 14:30N 37°41' E 023°41'1020.6
2019-Sep-12 14:00N 37°50' E 023°36'612.2
2019-Sep-12 13:31N 37°56' E 023°37'0 0.0
2019-Sep-12 12:58N 37°56' E 023°37'0 0.0
2019-Sep-12 12:28N 37°56' E 023°37'0 0.0
2019-Sep-12 11:58N 37°56' E 023°37'0 0.0
2019-Sep-12 11:28N 37°56' E 023°37'0 0.0
2019-Sep-12 10:58N 37°56' E 023°37'0 0.0
2019-Sep-12 10:28N 37°56' E 023°37'0 0.0
2019-Sep-12 10:00N 37°56' E 023°37'0 0.0
2019-Sep-12 09:27N 37°56' E 023°37'0 0.0
2019-Sep-12 09:00N 37°56' E 023°37'0 0.0
2019-Sep-12 08:30N 37°56' E 023°37'0 0.0
2019-Sep-12 08:00N 37°56' E 023°37'0 0.0
2019-Sep-12 07:30N 37°56' E 023°37'0 0.0
2019-Sep-12 07:00N 37°56' E 023°37'0 0.0
2019-Sep-12 06:21N 37°56' E 023°37'0 0.0
2019-Sep-12 05:57N 37°56' E 023°37'0 0.0
2019-Sep-12 05:30N 37°56' E 023°37'0 0.0
2019-Sep-12 05:00N 37°56' E 023°37'0 0.0
2019-Sep-12 04:30N 37°56' E 023°37'0 0.0
2019-Sep-12 03:54N 37°56' E 023°37'0 0.0
2019-Sep-12 03:21N 37°56' E 023°37'0 0.4
2019-Sep-12 03:00N 37°56' E 023°38'2 4.2
2019-Sep-12 02:30N 37°54' E 023°37'5 9.8
2019-Sep-12 02:00N 37°50' E 023°39'611.2
2019-Sep-12 01:30N 37°45' E 023°42'510.6
2019-Sep-12 01:00N 37°40' E 023°45'510.6
2019-Sep-12 00:30N 37°35' E 023°48'510.6
2019-Sep-12 00:00N 37°30' E 023°50'610.8
2019-Sep-11 23:29N 37°25' E 023°53'175 4.1
2019-Sep-10 04:56N 38°09' E 020°19'  

Dump ship's entire track history